This demonstration page uses our WeatherBlox Daily Observations layout. Learn more.

Left ArrowRight Arrow

Hourly Observations for June 27, 2015

Temp ( °F °C ) Dew Point ( °F °C ) Humidity (%) Winds ( mph kmh ) Pressure ( in mb ) Visibility ( mi km ) Precip ( " mm )
12:59 am 00:59 Mostly Cloudy 56 13.3 49 9.4 77 77 ESE 6 9 29.94 1014 10 16 0.00 0.03
1:59 am 01:59 Mostly Cloudy 71 21.7 68 20 90 90 E 7 11 29.99 1016 10 16 0.00 0.00
2:59 am 02:59 Mostly Cloudy 81 27.2 75 23.8 82 82 ESE 10 17 29.98 1015 10 16 0.00 0.00
3:59 am 03:59 Mostly Cloudy 73 22.8 68 20 84 84 SSE 5 7 29.98 1015 10 16 0.00 0.00
4:59 am 04:59 Mostly Cloudy 73 22.8 69 20.6 87 87 ESE 5 7 29.99 1016 10 16 0.00 0.00
5:33 am 05:33 Cloudy with Light Rain 73 22.8 69 20.6 87 87 Calm 30.00 1016 5 8 0.00 0.03
5:59 am 05:59 Cloudy with Light Rain 72 22.2 70 21.1 94 94 W 3 6 30.01 1016 5 8 0.02 0.51
6:59 am 06:59 Mostly Cloudy with Light Rain 73 22.8 71 21.7 94 94 ENE 6 9 29.99 1016 8 13 0.01 0.25
7:59 am 07:59 Cloudy with Light Rain 74 23.3 71 21.7 91 91 E 14 22 29.94 1014 8 13 0.02 0.51
8:12 am 08:12 Cloudy with Light Rain 74 23.3 71 21.7 91 91 E 12 19 29.94 1014 9 14 0.00 0.03
8:41 am 08:41 Cloudy 75 23.9 71 21.7 88 88 E 16 26 30.06 1018 8 13 0.00 0.03
8:51 am 08:51 Cloudy 74 23.3 71 21.7 91 91 E 13 20 29.94 1014 8 13 0.00 0.03
8:59 am 08:59 Cloudy 74 23.3 71 21.7 91 91 E 15 24 29.95 1014 9 14 0.00 0.03
9:59 am 09:59 Cloudy 76 24.4 71 21.7 85 85 E 9 15 29.96 1014 9 14 0.00 0.00
10:59 am 10:59 Cloudy 78 25.6 72 22.2 82 82 ESE 9 15 29.93 1014 9 14 0.00 0.00
11:20 am 11:20 Cloudy 82 27.6 75 24.1 81 81 ESE 12 19 29.94 1014 8 13 0.00 0.00
11:59 am 11:59 Cloudy 81 27.2 74 23.3 79 79 SSE 8 13 29.92 1013 8 13 0.00 0.00
12:59 pm 12:59 Mostly Cloudy 83 28.3 74 23.3 74 74 ESE 10 17 29.88 1012 9 14 0.00 0.00
1:39 pm 13:39 Mostly Cloudy 85 29.4 75 23.9 72 72 E 6 9 29.83 1010 8 13 0.00 0.00
1:59 pm 13:59 Mostly Cloudy 85 29.4 75 23.9 72 72 ESE 8 13 29.83 1010 8 13 0.00 0.00
2:06 pm 14:06 Mostly Cloudy 85 29.4 75 23.9 72 72 ESE 9 15 29.83 1010 8 13 0.00 0.00
2:13 pm 14:13 Mostly Cloudy with Thunderstorms 80 26.7 73 22.8 79 79 SE 15 24 29.83 1010 3 4 0.09 2.29
2:16 pm 14:16 Cloudy with Strong Thunderstorms 78 25.6 72 22.2 82 82 SE 12 19 29.83 1010 2 2 0.11 2.79
2:22 pm 14:22 Cloudy with Thunderstorms 80 26.7 73 22.8 79 79 SE 10 17 29.83 1010 2 3 0.11 2.79
2:35 pm 14:35 Cloudy with Thunderstorms 78 25.6 71 21.7 79 79 SE 7 11 29.83 1010 10 16 0.11 2.79
2:54 pm 14:54 Cloudy with Strong Thunderstorms 75 24 72 22 89 89 S 15 24 29.85 1011 1 2 0.25 6.35
2:57 pm 14:57 Cloudy with Strong Thunderstorms 73 23 72 22 94 94 SE 9 15 29.85 1011 1 1 0.37 9.40
2:59 pm 14:59 Cloudy with Strong Thunderstorms 74 23.3 71 21.7 91 91 SE 13 20 29.84 1011 1 1 0.40 10.16
3:14 pm 15:14 Cloudy with Strong Thunderstorms 74 23.3 70 21.1 88 88 ENE 14 22 29.80 1009 1 2 0.21 5.33
3:21 pm 15:21 Cloudy with Thunderstorms 74 23.3 71 21.7 91 91 ENE 10 17 29.80 1009 2 3 0.22 5.59
3:30 pm 15:30 Cloudy with Thunderstorms 74 23.3 70 21.1 88 88 NNE 8 13 29.80 1009 3 5 0.25 6.35
3:39 pm 15:39 Cloudy with Thunderstorms 74 23.3 71 21.7 91 91 WSW 8 13 29.83 1010 2 3 0.29 7.37
3:41 pm 15:41 Cloudy with Strong Thunderstorms 73 22.8 71 21.7 94 94 WSW 10 17 29.83 1010 1 2 0.34 8.64
3:43 pm 15:43 Cloudy with Strong Thunderstorms 73 22.8 71 21.7 94 94 WSW 9 15 29.83 1010 1 1 0.45 11.43
3:51 pm 15:51 Cloudy with Strong Thunderstorms 73 22.8 71 21.7 94 94 NW 8 13 29.83 1010 0 0 0.62 15.75
3:59 pm 15:59 Cloudy with Strong Thunderstorms 74 23.3 72 22.2 94 94 VRB 7 11 29.85 1011 1 1 0.77 19.56
4:06 pm 16:06 Cloudy with Strong Thunderstorms 74 23.3 72 22.2 94 94 VRB 5 7 29.85 1011 1 2 0.04 1.02
4:16 pm 16:16 Cloudy with Thunderstorms 74 23.3 72 22.2 94 94 WSW 6 9 29.91 1013 2 3 0.06 1.52
4:20 pm 16:20 Cloudy with Thunderstorms 74 23.3 72 22.2 94 94 WSW 3 6 29.83 1010 3 5 0.06 1.52
4:34 pm 16:34 Cloudy with Light Rain 74 23.3 72 22.2 94 94 Calm 29.80 1009 5 8 0.07 1.78
4:59 pm 16:59 Cloudy with Light Rain 75 23.9 72 22.2 90 90 E 5 7 29.78 1009 6 10 0.10 2.54
5:59 pm 17:59 Cloudy with Light Rain 75 23.9 73 22.8 94 94 Calm 29.78 1008 4 6 0.02 0.51
6:59 pm 18:59 Mostly Cloudy 76 24.4 74 23.3 94 94 Calm 29.78 1009 7 11 0.02 0.51
7:59 pm 19:59 Mostly Cloudy 76 24.4 74 23.3 94 94 Calm 29.79 1009 7 11 0.01 0.25
8:59 pm 20:59 Mostly Cloudy 75 23.9 74 23.3 96 96 SSW 6 9 29.68 1005 7 11 0.00 0.00
9:12 pm 21:12 Mostly Cloudy 75 23.9 73 22.8 94 94 SSW 3 6 29.77 1008 9 14 0.00 0.00
9:59 pm 21:59 Mostly Cloudy 75 23.9 73 22.8 94 94 S 6 9 29.75 1008 8 13 0.00 0.00
10:59 pm 22:59 Mostly Cloudy 76 24.4 74 23.3 94 94 SSW 12 19 29.75 1008 7 11 0.00 0.00
11:59 pm 23:59 Mostly Cloudy with Light Rain 76 24.4 73 22.8 91 91 SSW 10 17 29.74 1007 6 10 0.01 0.25

Powered by AerisWeather